Orbital Elements at Epoch 2459200.5 (2020-Dec-17.0) TDB
Reference: JPL 32 (heliocentric ecliptic J2000)
Element | Value | Uncertainty (1-sigma) | Units |
e | .2302747909150386 | 1.7804e-08 | |
a | 2.688925565399233 | 7.0026e-09 | au |
q | 2.069733793040823 | 4.7507e-08 | au |
i | 1.772323194310615 | 8.8379e-07 | deg |
node | 282.6434972595509 | 2.8404e-05 | deg |
peri | 83.55630911516664 | 2.8851e-05 | deg |
M | 24.96600876315316 | 4.3696e-06 | deg |
tp | 2459088.810276666188 (2020-Aug-27.31027667) | 1.9467e-05 | TDB |
period | 1610.521761072001 4.41 | 6.2913e-06 1.722e-08 | d yr |
n | .2235300439283574 | 8.7319e-10 | deg/d |
Q | 3.308117337757643 | 8.6151e-09 | au |
|
| | Orbit Determination Parameters
Additional Information
|